Location: *
(51.0333°S, 178.4667°E)
Time: 13:41:25
(UTC+00:00)

ARGOS Delta rocket - Pass Details

Date: 15 November 2019
Orbit: 636 x 837 km, 96.5° (Epoch: 10 December)

Event Time Altitude Azimuth Distance (km) Brightness Sun altitude
Rises 09:42:33 0° 164° (SSE) 3,147 7.8 -15.0°
Reaches altitude 10° 09:45:01 10° 155° (SSE) 2,188 6.8 -15.2°
Maximum altitude 09:49:30 39° 86° (E) 1,016 4.4 -15.6°
Enters shadow 09:51:22 27° 38° (NE) 1,284 4.6 -15.7°
